SCP
0 0 0 0 0 0 0 0 0 0 0 0 0 1 1 0 0 0 1 1 1 1 1 1 1 2 1 1 1 1 1 1 1 1 1 1 1 1 1 1 1 0 0 0 0 0 0 0 0
0 0 0 0 0 0 0 0 0 0 0 0 1 1 1 1 1 1 1 1 1 1 1 1 1 1 1 1 1 1 1 1 1 1 1 1 0 0 0 1 1 1 0 0 0 0 0 0 0
0 0 0 0 0 0 0 1 1 1 1 1 1 1 1 1 1 1 1 1 1 1 1 1 1 1 1 1 1 1 1 1 1 1 1 0 0 0 0 0 1 0 0 0 0 0 0 0 0
0 0 0 0 0 0 1 1 1 1 1 1 1 1 1 1 2 2 2 2 1 1 1 1 1 1 1 1 1 1 1 1 1 1 1 1 1 1 1 0 0 0 0 1 0 0 0 0 0
0 0 0 0 0 1 1 1 1 1 1 1 1 2 2 2 3 3 2 2 2 1 1 1 1 1 1 1 1 1 1 1 1 1 1 1 1 1 1 1 1 1 1 1 1 1 1 1 0
0 0 0 0 0 0 1 1 1 2 2 2 2 2 2 3 3 3 3 2 2 2 1 1 1 1 1 1 1 1 1 1 1 1 1 1 1 1 1 1 1 1 1 1 1 1 1 1 1
0 0 0 0 0 0 0 1 2 2 2 2 2 2 2 2 3 3 3 2 2 2 1 1 1 2 1 1 1 1 1 1 1 1 1 1 2 2 1 1 1 1 1 1 1 1 1 1 1
0 0 0 0 0 0 0 1 2 2 2 2 2 2 1 2 2 3 3 3 2 2 1 1 1 2 2 1 1 1 1 1 1 1 1 1 1 1 1 1 1 1 1 2 2 1 1 1 1
0 0 0 0 0 0 0 1 2 2 2 3 3 2 2 2 3 4 4 3 3 2 2 1 1 2 2 2 1 1 2 2 2 2 2 1 1 1 1 1 1 2 2 2 2 2 2 1 1
0 0 0 0 0 0 1 1 2 2 3 3 4 5 5 4 4 5 5 5 4 3 3 2 2 2 2 2 2 2 2 2 2 1 1 1 1 1 1 1 1 2 2 2 2 2 2 2 1
0 0 0 0 0 1 1 2 3 3 4 4 6 8 8 8 7 6 7 6 5 4 3 3 2 2 2 2 2 2 2 2 2 1 1 2 1 1 1 1 1 2 2 2 2 2 2 2 2
0 0 0 0 0 1 2 3 4 5 6 7 8 10 11 10 8 8 8 7 6 5 4 3 2 2 2 2 2 2 2 2 2 2 2 2 2 2 1 1 1 2 2 2 3 3 2 2 2
0 0 0 0 1 2 3 3 5 6 8 10 11 12 13 12 10 10 9 8 7 6 5 4 4 3 2 2 2 2 2 2 2 2 2 2 2 2 2 2 2 2 2 3 3 3 3 3 3
0 0 0 0 1 2 3 4 5 7 10 11 13 14 14 14 13 12 11 9 8 7 7 6 5 5 4 3 3 3 3 3 3 3 2 3 3 3 3 2 2 2 2 2 3 3 4 4 3
0 0 0 0 1 2 3 4 5 7 9 10 11 12 13 13 13 12 10 8 8 8 7 7 6 5 4 4 3 3 3 3 3 3 3 3 3 3 3 3 3 3 3 3 3 3 4 4 4
0 0 0 1 1 1 2 4 5 6 8 8 8 9 9 9 10 9 8 7 7 7 7 7 6 5 4 4 3 3 3 3 3 3 3 3 3 3 3 3 3 3 3 3 3 4 4 4 3
0 0 0 1 1 1 2 3 4 5 6 7 7 6 6 7 7 7 7 7 6 6 6 6 5 5 4 3 3 3 3 2 2 2 2 3 3 3 2 2 3 3 3 3 4 4 3 3 2
0 0 0 1 1 2 2 3 3 4 5 6 5 4 4 4 4 5 6 6 6 5 4 4 4 4 3 3 2 2 2 2 2 2 2 2 2 2 1 1 2 2 2 3 4 4 3 2 2
0 0 0 1 1 2 2 2 2 3 4 4 3 3 2 2 2 3 4 5 4 3 3 2 2 2 2 2 2 2 2 2 2 1 1 1 1 1 1 1 1 1 1 2 2 2 2 2 2
0 0 0 1 1 1 1 2 2 2 3 3 2 1 1 1 1 2 2 2 2 2 2 2 1 1 1 1 1 1 1 1 1 1 1 1 1 1 1 1 1 1 1 1 1 1 1 2 2
0 0 0 1 1 1 1 1 1 2 2 2 1 1 1 1 1 1 1 1 1 1 1 1 1 1 1 1 1 1 1 1 1 0 0 0 1 1 1 1 1 0 0 0 0 1 1 1 1
0 0 0 0 0 0 0 1 1 1 1 1 1 1 1 1 1 1 1 1 1 1 1 1 1 1 0 0 0 0 0 0 0 0 0 0 0 0 1 1 0 0 0 0 0 0 0 0 1
0 0 0 0 0 0 0 0 1 1 1 1 1 1 1 1 1 1 1 1 1 1 1 0 0 0 0 0 0 0 0 0 0 0 0 0 0 0 0 0 0 0 0 0 0 0 0 0 0
0 0 0 0 0 0 0 0 0 1 1 1 1 1 1 1 1 1 1 1 1 1 0 0 0 0 0 0 0 0 0 0 0 0 0 0 0 0 0 0 0 0 0 0 0 0 0 0 0
0 0 0 0 0 0 0 0 0 0 1 1 1 1 1 1 0 0 0 0 0 0 0 0 0 0 0 0 0 0 0 0 0 0 0 0 0 0 0 0 0 0 0 0 0 0 0 0 0
0 0 0 0 0 0 0 0 0 0 1 1 1 1 1 0 0 0 0 0 0 0 0 0 0 0 0 0 0 0 0 0 0 0 0 0 0 0 0 0 0 0 0 0 0 0 0 0 0
0 0 0 0 0 0 0 0 0 0 0 0 0 0 1 0 0 0 0 0 0 0 0 0 0 0 0 0 0 0 0 0 0 0 0 0 0 0 0 0 0 0 0 0 0 0 0 0 0
0 0 0 0 0 0 0 0 0 0 0 0 0 0 0 0 0 0 0 0 0 0 0 0 0 0 0 0 0 0 0 0 0 0 0 0 0 0 0 0 0 0 0 0 0 0 0 0 0
0 0 0 0 0 0 0 0 0 0 0 0 0 0 0 0 0 0 0 0 0 0 0 0 0 0 0 0 0 0 0 0 0 0 0 0 0 0 0 0 0 0 0 0 0 0 0 0 0
0 0 0 0 0 0 0 0 0 0 0 0 0 0 0 0 0 0 0 0 0 0 0 0 0 0 0 0 0 0 0 0 0 0 0 0 0 0 0 0 0 0 0 0 0 0 0 0 0
Wind_Speed
9 6 2 0 0 0 4 6 6 5 3 2 6 8 7 5 4 4 3 15 19 18 14 16 18 19 19 19 18 18 17 17 16 16 16 15 15 14 14 14 13 13 13 12 12 11 12 12 12
6 5 1 1 0 1 5 6 8 8 3 3 6 7 6 6 8 9 6 14 20 18 12 14 20 19 19 19 18 18 17 17 16 16 15 15 14 14 13 13 12 12 12 12 12 11 11 11 11
6 4 1 0 2 4 6 8 10 7 5 2 4 4 4 4 8 7 10 17 17 14 11 15 21 20 20 19 18 17 17 17 16 15 15 15 14 13 13 12 12 12 12 11 11 11 11 10 10
4 1 1 2 7 9 9 13 11 4 1 3 6 5 3 3 6 11 18 18 16 12 10 14 20 20 19 18 18 17 17 16 16 15 15 14 14 13 13 12 11 12 12 11 11 11 10 10 9
2 2 1 4 8 10 13 14 10 3 3 4 8 6 3 5 16 20 18 17 16 12 9 12 19 19 18 18 17 16 16 16 15 15 14 14 13 13 13 12 12 12 11 11 11 11 10 10 9
1 2 2 5 7 10 9 7 4 3 7 6 7 6 3 9 17 18 16 15 15 14 10 10 18 19 18 17 16 15 15 15 14 14 13 13 12 12 12 12 12 12 12 11 11 11 11 10 10
3 2 4 6 7 9 8 8 4 3 5 4 6 7 4 8 13 15 15 14 13 13 10 8 9 13 16 16 15 15 14 14 13 13 13 13 12 12 12 12 12 12 12 12 12 13 12 12 11
4 1 4 4 6 10 9 9 6 5 3 5 5 8 6 9 13 14 14 13 11 9 9 8 7 7 7 9 14 15 14 14 13 13 13 12 12 12 13 11 12 13 13 13 13 14 13 13 12
1 0 5 5 5 9 11 8 6 5 6 4 3 5 8 14 17 17 14 11 9 9 7 7 7 7 6 6 11 12 13 13 12 10 12 10 5 5 7 10 13 15 15 15 15 15 15 14 13
4 4 10 9 8 8 12 7 3 4 7 6 7 7 10 12 15 16 15 13 11 11 9 8 8 8 7 7 6 4 5 5 5 4 5 4 4 4 7 9 15 16 16 16 16 16 15 12 6
5 8 12 14 14 10 8 6 4 5 4 4 9 10 9 9 9 12 12 13 12 12 11 10 9 9 8 5 5 3 3 3 4 5 5 4 4 4 5 4 7 9 13 9 10 11 7 6 6
6 11 13 13 13 8 6 1 4 7 6 8 10 10 10 9 7 8 9 9 9 9 9 9 8 7 7 5 4 4 3 3 4 5 6 4 3 4 4 3 4 5 4 6 6 5 7 7 8
7 11 12 12 9 5 1 2 7 9 11 13 15 14 12 9 7 6 7 7 7 7 7 7 6 6 5 5 4 4 3 3 4 3 4 5 4 4 3 3 3 4 4 5 6 6 7 8 9
7 8 9 8 7 3 3 3 6 6 11 15 16 14 13 11 9 9 8 8 5 5 5 5 5 5 6 5 4 3 2 2 2 2 2 4 3 3 3 3 3 3 4 4 5 7 7 7 7
5 7 10 6 4 1 5 8 7 7 13 16 15 14 14 12 11 10 8 7 5 4 4 5 5 5 5 4 4 3 2 2 2 1 1 2 2 2 2 2 3 3 3 4 4 6 5 6 7
6 5 6 8 5 3 8 6 5 7 14 13 12 13 12 10 10 9 8 7 5 5 5 5 6 6 4 4 3 2 2 2 2 1 1 2 1 1 1 2 3 3 3 3 3 4 4 5 5
5 4 6 7 7 5 10 7 6 7 12 11 9 10 9 9 8 7 7 6 5 5 5 6 5 5 4 4 3 3 3 2 1 2 1 1 1 0 0 1 2 3 3 3 4 3 3 4 5
4 4 5 5 6 12 13 10 8 8 9 9 8 7 7 8 6 6 6 6 5 5 5 6 5 5 4 4 3 3 3 2 2 1 0 0 0 0 0 1 3 3 3 3 3 3 3 4 5
2 2 3 3 5 10 12 10 8 7 5 6 5 5 5 5 5 5 5 5 5 5 5 5 5 4 3 3 2 2 2 2 2 1 1 0 1 1 1 2 2 2 3 4 4 3 4 4 3
1 1 1 1 5 7 8 8 3 2 1 3 4 2 3 3 4 4 4 4 4 4 4 4 4 3 3 2 1 1 0 1 1 2 2 2 2 2 2 2 2 2 2 4 3 3 2 3 3
1 2 2 2 5 7 7 3 2 2 1 2 4 4 3 5 5 5 5 4 4 4 5 4 4 3 3 2 2 2 3 2 3 3 3 3 3 3 3 3 2 2 2 2 3 3 3 3 2
3 3 4 4 4 1 2 1 4 3 2 2 3 4 5 5 5 5 6 5 5 5 5 5 4 4 3 3 3 2 1 1 2 2 2 4 4 4 4 3 3 2 1 2 3 2 2 2 2
3 2 5 5 5 3 4 2 4 1 3 3 4 5 6 6 7 7 7 7 6 6 5 5 4 3 3 3 3 3 2 2 2 2 3 4 4 4 4 3 3 2 2 2 2 2 2 2 2
5 7 6 6 5 4 3 0 4 3 3 3 3 4 5 6 6 6 6 5 4 4 4 3 3 3 3 3 3 3 4 3 3 3 3 3 3 3 4 3 3 3 3 3 2 2 2 2 2
4 5 4 5 5 1 3 1 6 5 5 5 5 4 3 4 5 5 5 5 4 3 2 2 2 2 3 2 2 3 4 4 4 4 4 4 3 3 4 3 3 3 4 4 3 2 2 2 2
1 6 5 3 2 1 2 2 7 6 5 4 5 4 4 4 4 4 5 4 2 1 1 2 1 1 1 2 3 3 3 3 3 4 4 4 4 4 5 5 4 5 5 4 3 3 3 2 2
2 1 5 7 4 2 1 3 6 4 3 3 3 4 5 5 4 3 3 3 3 3 2 2 2 0 2 2 3 3 3 3 4 4 4 4 4 4 5 5 5 5 5 5 4 3 4 3 3
4 4 5 5 5 2 1 3 5 5 5 5 4 5 5 3 3 4 4 3 3 3 2 2 1 1 2 2 2 2 3 3 4 4 4 5 5 4 5 5 5 5 5 6 5 5 5 4 4
3 3 5 4 5 6 3 5 6 8 7 6 6 6 5 5 5 4 3 3 2 2 1 1 1 1 2 3 3 3 4 4 4 3 4 5 5 5 5 6 6 6 6 6 5 6 6 6 6
3 3 5 4 0 4 4 5 4 7 6 7 6 5 5 6 5 4 3 2 1 1 1 1 2 2 3 3 3 4 4 4 4 5 6 5 6 6 6 6 6 6 6 6 6 7 7 7 8
Wind_Direction
162 155 162 114 24 353 264 253 251 284 316 30 67 78 74 62 106 133 119 141 138 145 150 150 148 145 144 142 140 138 137 135 133 132 131 131 131 131 132 132 132 131 131 130 130 129 128 127 126
155 161 166 37 110 319 275 250 255 260 202 118 78 80 75 74 89 107 116 142 141 143 145 149 148 147 147 146 145 144 142 141 141 140 139 139 139 140 140 140 139 139 138 138 137 137 136 135 134
169 185 152 199 240 214 254 259 251 256 215 195 97 66 71 102 111 120 139 141 137 139 142 152 149 149 149 149 149 148 148 147 148 148 148 149 149 149 149 149 149 148 148 147 148 147 146 147 147
159 158 318 248 249 243 247 270 273 251 150 110 104 74 52 57 112 129 137 141 137 137 141 152 149 150 151 152 152 152 153 153 154 155 156 157 157 157 158 159 160 159 158 159 159 158 158 160 162
111 135 233 260 252 254 254 260 259 185 136 108 108 101 55 42 111 128 139 142 139 137 142 150 149 150 152 154 156 156 157 159 160 161 163 164 165 165 166 168 169 169 169 169 169 170 170 174 178
129 164 220 258 268 284 281 277 270 131 120 120 109 106 88 118 125 138 140 141 140 140 141 148 151 152 153 156 158 160 161 163 165 166 168 171 172 173 175 177 179 181 180 180 181 182 183 185 190
176 202 240 266 298 306 312 333 338 118 132 145 126 107 120 135 138 140 136 132 135 141 142 144 152 155 157 159 161 163 165 167 169 171 174 177 179 182 185 187 190 192 191 191 192 193 195 196 199
189 146 284 294 305 298 313 345 4 80 103 132 120 130 159 158 139 131 126 125 131 140 146 145 147 150 154 160 166 169 171 173 175 178 181 186 190 193 197 196 199 203 203 202 202 203 204 205 206
191 81 267 266 275 284 311 342 352 23 79 72 82 132 149 141 129 125 122 124 137 145 153 154 154 152 152 160 175 176 179 182 183 186 191 194 197 201 206 211 211 213 213 212 211 211 210 210 214
160 207 246 243 255 281 304 322 327 70 67 62 68 81 116 125 131 133 140 149 154 161 167 170 167 164 163 176 171 176 183 183 184 186 192 196 194 209 216 223 223 223 222 221 219 219 216 213 214
203 227 254 265 268 267 285 319 11 97 74 121 128 122 111 106 120 135 147 156 164 168 171 175 174 172 176 179 164 177 183 184 192 197 200 199 200 217 224 221 231 230 227 224 225 225 221 217 211
242 257 258 268 274 270 273 295 51 69 107 114 105 103 90 100 112 129 144 154 154 160 170 167 167 171 177 166 164 173 185 189 196 206 204 200 210 222 228 227 227 223 218 213 218 217 218 223 222
251 260 267 269 272 267 294 99 97 89 98 96 90 82 84 94 93 106 125 128 129 137 152 153 155 155 149 145 151 157 174 178 190 197 200 197 204 221 230 235 235 231 222 214 215 218 219 221 224
257 279 291 288 283 285 100 67 90 105 99 90 87 84 79 81 83 88 92 96 101 114 136 135 127 128 126 128 130 134 143 139 144 171 193 196 198 211 223 240 247 242 230 224 221 223 225 223 226
297 317 313 302 304 268 94 52 65 110 99 90 86 84 81 77 77 83 90 96 94 94 109 114 112 101 107 108 109 113 120 115 112 126 135 158 185 206 223 242 254 252 242 239 237 234 232 231 229
350 349 318 307 349 333 96 90 67 99 94 88 87 86 82 77 82 88 90 92 89 84 81 81 97 86 91 94 95 91 82 82 89 93 96 102 121 141 227 249 258 262 257 244 238 234 230 232 226
358 320 297 316 6 34 74 88 56 55 87 89 85 86 85 86 83 90 95 93 88 89 91 85 79 79 72 72 69 68 65 60 59 64 71 70 68 106 215 261 268 277 275 264 259 244 226 237 237
282 305 321 346 20 64 76 73 55 48 72 84 83 86 92 98 104 109 107 103 97 92 88 83 74 71 63 54 49 45 42 36 36 42 72 115 354 7 311 283 285 285 279 273 263 257 239 235 237
248 313 330 347 69 79 83 76 53 47 55 77 72 80 92 105 117 117 116 110 101 88 82 79 77 63 59 53 48 40 15 356 357 334 316 314 294 295 284 291 295 298 281 272 263 254 253 248 224
20 348 326 43 70 90 89 76 55 60 53 112 120 122 120 120 117 118 119 112 103 101 97 94 93 89 85 96 107 125 142 321 322 339 340 321 301 285 279 274 280 289 291 292 278 260 254 258 211
291 190 185 143 73 78 98 54 307 255 223 144 144 163 173 165 154 149 139 138 136 141 151 145 148 136 128 117 86 51 37 18 4 347 329 315 304 282 272 263 259 273 279 290 288 268 246 250 255
266 214 154 137 111 52 110 166 263 258 282 218 192 184 181 179 171 170 166 169 172 177 171 166 165 161 155 134 119 124 135 225 252 262 283 304 308 296 279 264 252 249 254 285 298 306 262 241 248
191 121 109 113 110 75 21 106 278 271 270 250 214 198 189 186 183 184 183 185 189 184 178 179 174 182 185 170 163 161 191 223 250 276 298 302 304 302 290 267 246 238 240 254 281 303 302 270 249
114 76 57 51 71 57 319 169 283 252 240 248 236 209 192 189 193 193 193 188 194 191 185 185 185 215 222 208 197 194 213 235 261 280 286 289 291 295 295 275 247 237 234 240 252 266 288 293 284
87 92 38 13 29 299 303 358 268 265 264 237 236 230 213 197 201 202 198 198 202 199 194 180 182 240 258 246 245 238 234 237 246 257 260 268 278 278 273 268 252 245 241 240 238 245 256 269 285
134 131 149 180 189 270 328 280 269 277 275 230 219 216 222 218 207 197 191 186 174 153 146 145 159 261 291 280 276 270 260 251 254 253 249 253 251 256 263 261 249 245 242 239 228 229 242 243 252
67 29 148 123 99 91 292 297 299 296 295 251 226 212 209 207 200 177 149 135 129 112 110 127 138 243 295 289 286 285 283 274 269 270 266 265 264 270 274 268 260 253 247 241 231 229 236 237 243
129 141 81 93 127 123 249 240 232 235 232 237 220 201 204 176 152 143 130 122 121 126 127 113 128 213 275 291 288 297 287 283 279 282 283 280 278 278 284 279 269 262 255 245 233 235 236 231 239
25 48 96 110 141 140 178 259 228 198 195 188 196 191 180 157 147 134 128 127 123 110 100 63 333 307 301 299 297 305 297 291 291 284 278 275 273 274 270 268 266 264 259 251 238 236 235 230 236
158 172 137 125 101 128 135 264 266 169 168 160 167 168 153 141 141 138 134 120 98 67 336 316 305 301 291 290 296 297 294 293 291 283 278 274 272 270 265 264 262 261 260 250 240 242 241 229 229